Location: Unspecified
(42.9300°N, 71.1866°W)
Time: 04:54:56
(UTC-04:00)

CZ-3 Stage 3 - Visible Passes

Search period start: 27 June 2017 00:00
Search period end: 07 July 2017 00:00
Orbit: 418 x 34780 km, 30.9° (Epoch: 26 June)

Date Brightness Start Highest point End Pass type
(mag) Time Alt. Az. Time Alt. Az. Time Alt. Az.
27 Jun 7.8 15:51:16 10° WSW 16:18:12 70° S 00:33:37 15° SSW visible
28 Jun 6.4 12:16:30 10° SSW 18:37:03 24° ESE 20:50:38 10° SE visible
29 Jun 10.1 19:24:57 10° W 20:43:17 50° WSW 01:59:01 10° WSW visible
30 Jun 7.7 15:42:00 10° WSW 16:08:30 70° S 00:27:24 13° SSW visible
01 Jul 6.4 12:07:08 10° SSW 18:26:21 23° ESE 20:39:27 10° SE visible
02 Jul 10.1 19:15:39 10° W 20:32:35 49° WSW 01:44:33 10° WSW visible
03 Jul 7.7 15:32:44 10° WSW 15:58:49 69° S 00:21:17 11° SSW visible
05 Jul 10.1 19:06:21 10° W 20:21:56 49° WSW 01:30:03 10° WSW visible
